Location: Garcillán
(40.9777°N, 4.2658°W)
Time: 12:22:19
(UTC+00:00)

Daily predictions for brighter satellites

Satellite Brightness Start Highest point End
(mag) Time Altitude Azimuth Time Altitude Azimuth Time Altitude Azimuth
TSX-5 4.4 20:18:39 10° S 20:22:52 60° ESE 20:28:24 10° NNE
Lacrosse 5 2.0 20:20:16 10° NW 20:25:24 83° SW 20:30:30 10° SE
Cosmos 1709 Rocket 4.0 20:20:28 10° N 20:26:44 78° E 20:33:02 10° S
MetOp-A 4.1 20:29:05 10° S 20:33:29 66° WSW 20:38:18 10° NNW
Cosmos 2315 Rocket 4.1 20:27:48 10° S 20:34:08 87° E 20:40:27 10° N
OBJECT-B 3.6 20:33:37 10° SW 20:35:11 14° W 20:36:46 10° WNW
Cosmos 1544 Rocket 3.7 20:33:28 10° N 20:37:44 56° E 20:42:00 10° SSE
PSLV R/B 3.9 20:34:42 10° NNE 20:38:51 68° ESE 20:43:01 10° S
Cosmos 1833 Rocket 3.1 20:34:49 10° S 20:40:02 42° ESE 20:45:18 10° NE
Tiangong 2.7 20:39:09 10° W 20:41:45 23° SSW 20:44:13 11° SSE
Cosmos 1703 4.3 20:39:18 10° SSE 20:42:36 27° E 20:45:54 10° NNE
NOSS 2-1 (C) 4.3 20:37:47 10° NW 20:42:38 88° WSW 20:49:36 10° SSE
IRS-1A Rocket 4.5 20:37:14 10° SSE 20:43:06 71° ENE 20:48:57 10° N
NOSS 2-1 (D) 4.4 20:48:13 10° NW 20:53:08 75° WSW 20:59:49 11° SSE
RESURS DK-1 2.9 20:52:00 10° NNW 20:56:00 46° ENE 20:59:05 16° SE
Cosmos 1025 Rocket 4.3 20:51:57 10° SSW 20:56:01 42° WNW 21:00:07 10° N
X-37B 1.3 21:01:08 10° WNW 21:03:51 43° NNE 21:06:14 12° E
Helios 1A Rocket 4.3 21:03:01 15° ESE 21:05:25 25° ENE 21:08:49 10° NNE
SL-8 R/B 4.0 21:01:25 10° WNW 21:06:12 63° NNE 21:10:19 14° ESE
Delta 2 Rocket 3.6 21:04:14 10° WSW 21:07:17 32° S 21:08:47 21° SE
Cosmos 1271 Rocket 3.4 21:07:00 10° NNW 21:10:51 54° W 21:14:40 10° S
Cosmos 1741 Rocket 4.1 21:05:52 10° NNW 21:11:11 67° ENE 21:15:09 18° SSE
Cosmos 2154 Rocket 4.4 21:07:05 10° N 21:13:02 45° ENE 21:17:21 18° SE
IRAS Rocket 4.2 21:07:26 10° NNE 21:13:03 79° ESE 21:18:35 10° SSW
Ariane Rocket 3.1 21:09:13 11° S 21:14:04 81° WSW 21:19:12 10° NNW
Cosmos 1455 3.0 21:11:49 10° NNW 21:15:32 50° W 21:19:13 10° S
Cosmos 2082 Rocket 2.9 21:11:42 13° SSE 21:16:04 34° ESE 21:21:09 10° NE
SPOT 3 Rocket 3.6 21:15:15 17° SSE 21:19:18 73° ENE 21:24:31 10° N
CZ-2C R/B 4.3 21:19:11 10° NNE 21:23:20 35° E 21:25:23 23° SE
Cosmos 2228 3.1 21:20:46 10° N 21:24:57 58° E 21:27:18 24° SSE
Resurs 01 Rocket 3.0 21:25:18 10° SSW 21:29:21 35° W 21:33:26 10° NNW
ATLAS 2AS CENTAUR R/B 3.8 21:28:28 10° NW 21:34:39 36° WSW 21:40:07 12° S
Meteor 1-21 Rocket 4.2 21:30:05 12° S 21:35:16 78° E 21:40:58 10° NNE
GEOS 3 Rocket 4.1 21:33:50 19° S 21:37:15 50° WSW 21:42:13 10° NW
Cosmos 1850 Rocket 4.2 21:32:15 10° NNW 21:37:25 68° WSW 21:40:52 21° S
Cosmos 1331 Rocket 4.2 21:33:34 10° SSW 21:38:51 73° WNW 21:44:10 10° NNE
SPOT 5 2.6 21:37:57 28° SSE 21:40:12 71° ENE 21:44:30 10° N
CZ-4B R/B 3.8 21:39:23 10° NNW 21:41:30 19° WNW 21:43:37 10° WSW
Terra 2.2 21:39:42 27° SE 21:41:59 50° ENE 21:46:35 10° N
Cosmos 2184 Rocket 4.1 21:37:55 10° N 21:44:05 76° W 21:48:56 17° S
Cosmos 1892 3.9 21:44:17 24° E 21:44:24 24° E 21:47:30 10° NE
Spot 2 Rocket 3.5 21:41:30 25° SSE 21:44:29 81° ENE 21:49:37 10° N
USA 245 3.9 21:49:42 22° SSW 21:52:01 48° WSW 21:55:22 10° NNW
ASTEX 1 4.2 21:53:05 10° NNE 21:57:37 33° E 21:58:45 30° ESE
Cosmos 1606 Rocket 3.4 21:54:08 10° N 21:58:30 88° E 22:00:09 38° S
ARIANE 5 R/B 2.9 21:58:45 37° SE 22:00:12 55° ENE 22:04:32 10° N
Cosmos 1697 Rocket 2.8 21:57:10 10° NNW 22:02:45 67° WSW 22:05:32 30° S
Cosmos 1980 Rocket 2.4 21:57:22 10° NNW 22:03:01 62° ENE 22:05:29 33° SE
SL-16 R/B 4.1 21:59:57 10° N 22:03:55 19° NE 22:07:09 12° E
GP-B 3.9 22:00:20 10° NNE 22:04:23 34° E 22:05:01 33° ESE
ERS-1 Rocket 3.0 22:02:19 30° S 22:04:48 76° WSW 22:09:52 10° NNW
Lacrosse 5 4.2 22:05:30 10° W 22:07:37 13° WSW 22:09:44 10° SW
ATLAS 5 CENTAUR R/B 4.4 22:02:54 10° NW 22:07:59 18° W 22:10:48 10° SW
ATLAS 5 CENTAUR R/B 1.3 22:08:26 51° ESE 22:08:26 51° ESE 22:12:04 10° NE
Meteor 2-1 Rocket 4.3 22:02:48 10° NNW 22:08:19 75° W 22:11:11 30° S
Cosmos 2369 3.7 22:03:19 10° NNW 22:09:06 78° ENE 22:11:30 36° SSE
Cosmos 1302 Rocket 4.0 22:06:00 16° SSW 22:10:08 79° WNW 22:15:21 10° NNE
Cosmos 2341 Rocket 4.1 22:06:44 10° N 22:12:59 62° E 22:15:35 35° SSE
COSMOS 2406 3.8 22:07:33 10° SW 22:13:13 58° WNW 22:18:55 10° NNE
In-Cosmos 22 Rocket 4.4 22:14:45 38° SE 22:16:24 51° E 22:21:39 10° NNE
Cosmos 1408 2.2 22:19:29 85° S 22:19:34 89° E 22:23:01 10° N
Okean 1-7 Rocket 4.1 22:19:49 40° ESE 22:20:08 41° E 22:24:22 10° NNE
Cosmos 1726 Rocket 3.7 22:16:28 10° NNW 22:20:46 68° W 22:22:00 44° SSW
ASTRO F (AKARI) 4.3 22:22:58 83° SE 22:23:05 87° ENE 22:26:36 10° NNW
Cosmos 968 Rocket 3.4 22:19:39 10° NNW 22:24:54 86° WSW 22:26:32 46° SSE
Cosmos 1869 4.2 22:23:15 10° NNE 22:26:47 33° ENE 22:26:47 33° ENE
Cosmos 1825 2.7 22:28:51 43° ENE 22:28:51 43° ENE 22:31:59 10° NNE
Meteor 1-27 4.4 22:28:05 10° N 22:33:33 56° ENE 22:35:01 43° SE
Cosmos 2181 Rocket 3.9 22:34:40 41° S 22:36:57 75° E 22:43:11 10° N
Cosmos 2322 Rocket 3.8 22:34:17 10° N 22:38:54 25° NE 22:41:25 19° E
X-37B 2.9 22:36:39 10° WNW 22:37:26 16° W 22:37:26 16° W
USA 267 3.1 22:33:57 10° NE 22:40:27 66° SE 22:45:35 17° SSW
Cosmos 2344 4.4 22:31:40 10° NW 22:41:07 78° WSW 22:48:14 32° SSE
Cosmos 2084 Rocket 4.2 22:39:45 10° NW 22:43:24 38° WSW 22:43:24 38° WSW
Cosmos 1867 3.5 22:39:30 10° NW 22:44:58 76° WSW 22:46:12 54° S
Cosmos 1602 Rocket 4.0 22:48:54 45° E 22:48:54 45° E 22:52:43 10° NNE
Cosmos 2278 3.6 22:45:39 10° NNW 22:51:23 88° ENE 22:52:47 54° SSE
SAR-Lupe-4 4.0 22:51:59 10° N 22:55:19 60° WNW 22:55:19 60° WNW
Cosmos 2082 Rocket 3.6 22:54:54 10° WSW 23:00:05 35° WNW 23:05:18 10° N
ALOS 2 3.9 23:00:42 27° ENE 23:00:59 27° ENE 23:04:42 10° N
Gbstr 26 Del rocket 4.3 23:05:11 29° ENE 23:05:11 29° ENE 23:07:44 10° ENE
Nadezhda 3 Rocket 4.3 23:02:13 42° ESE 23:03:15 46° E 23:09:05 10° NNE
Cosmos 2058 Rocket 4.2 23:06:58 10° NNW 23:10:56 33° W 23:11:35 32° WSW
Cosmos 1626 Rocket 3.7 23:10:58 59° W 23:11:13 61° W 23:15:31 10° N
Cosmos 1633 3.6 23:12:29 40° NNE 23:12:29 40° NNE 23:14:50 10° N
Cosmos 1606 4.1 23:08:29 10° NNE 23:11:18 30° NE 23:11:18 30° NE
USA 234 4.3 23:07:06 10° E 23:13:07 40° NNE 23:19:09 10° NW
Cosmos 2360 Rocket 3.6 23:09:15 10° N 23:14:12 30° NE 23:16:14 24° E
SL-8 Rocket 4.5 23:09:51 10° NNW 23:15:50 51° W 23:17:50 37° SW
Terra 3.9 23:18:35 15° WSW 23:19:59 17° W 23:23:02 10° NW
Cosmos 1825 Rocket 4.3 23:24:44 42° ENE 23:24:44 42° ENE 23:28:11 10° NNE
Cosmos 1486 Rocket 4.2 23:20:10 10° NNW 23:25:17 56° WSW 23:25:43 55° SW
SJ 16-02 1.8 23:22:14 10° N 23:26:24 53° ENE 23:26:24 53° ENE
Cosmos 2058 3.8 23:28:04 40° ENE 23:28:04 40° ENE 23:31:13 10° NNE
H-2A R/B 4.0 23:23:29 10° NNE 23:26:52 50° NE 23:26:52 50° NE
Meteor 2-20 4.4 23:30:58 58° SSW 23:32:17 84° W 23:38:24 10° N
Cosmos 2237 4.4 23:27:58 10° NNW 23:33:40 63° ENE 23:34:40 54° ESE
Cosmos 2221 4.2 23:36:49 10° NNE 23:40:15 24° ENE 23:40:15 24° ENE
ADEOS Rocket 3.5 23:42:56 50° SSE 23:45:10 82° ENE 23:52:56 10° NNW
Cosmos 1980 Rocket 4.0 23:42:43 10° WNW 23:46:25 18° W 23:47:14 18° WSW
SL-4 R/B 3.4 23:49:36 30° NNE 23:49:36 30° NNE 23:51:49 10° NE
SL-16 R/B 2.1 23:42:56 10° NNW 23:48:36 71° WSW 23:49:00 68° SW
ERS-2 3.9 23:45:38 10° NNE 23:47:29 26° NE 23:47:29 26° NE
Cosmos 2219 Rocket 3.9 23:45:52 10° N 23:50:34 26° NE 23:53:13 19° E
ATLAS 5 CENTAUR R/B 4.1 23:50:41 10° WNW 23:53:08 16° NW 23:55:45 10° N
Cosmos 1354 Rocket 4.0 23:49:12 10° NNW 23:54:27 66° WSW 23:54:30 66° WSW
